DELTA 1 DEB, 21292

Orbit data source: Space-Track

DELTA 1 DEB, 21292 is space debris in SSO originally from a launch on Thu, 12 Jun 1975 UTC launched from the Air Force Western Test Range (AFWTR). Debris objects in space refer to the collection of defunct objects orbiting the Earth. Examples of debris include non-operational satellites, rocket bodies, and fragments generated from explosions, collisions, or faulty payload assembly.

Loading next visibility...
Identifier
21292, 1975-052AD
Orbit
SSO
Last TLE update
22 hours ago
Origin
Manufacturer
Unknown
Mission
Spacecraft
Bus & Motor
Unknown
Mass
Unknown
Launch date (UTC)
1975-06-12 (50 years ago)
Launch vehicle
Unknown
Launch site
Air Force Western Test Range (AFWTR)
Object type
Payload
Rocket body
Debris
Shape & HBR
Unknown
Radar Cross Section
Small (<0.1 m²)

Expand to show TLE details & history

TLE from 22 hours ago
0 DELTA 1 DEB
1 21292U 75052AD  25181.20399287  .00000123  00000-0  19833-3 0  9995
2 21292  99.8206  52.3179 0222745 243.0993 242.1895 13.58448037689648
Epoch: 2025-06-30T04:53Z
TLE epoch observation values (Epoch: 2025-06-30T04:53:44.983Z)
Latitude
55.76746°
Longitude
-104.97547°
Altitude
1,130.474 km
Speed
7.253 km/s
True Right ascension
16h 27m 54s
True Declination
55° 36' 55"
Sunlit
Object was in daylight at epoch
Visualization orbit readout
Latitude
-32.67356°
Longitude
-125.07432°
Altitude
906.59 km
Speed
7.471 km/s
Apparent Right ascension
17h 52m 28s
Apparent Declination
-76° 56' 05"
Sunlit
Object is in full shadow
Visualization observer readout
Local Sidereal Time
14:09:46
Azimuth
167.307° S
Elevation
-31.822°
Doppler factor
1
Orbital elements
Apogee altitude
1,203.837 km
Perigee altitude
873.427 km
Semi-major axis
7,416.769 km
Eccentricity
0.02227
Inclination
99.8206°
RAAN
52.3179°
Arg. of periapsis
243.0993°
True anomaly
Unknown
Mean anomaly
242.1895°
Eccentric anomaly
Unknown
Mean motion
3.39798 °/min
Orbital period
105.95 mins
BSTAR
0.00019833
Loading maneuver chart data...
Loading SW <> Apogee altitude chart data...
Loading historical data...
Loading historical data...
Loading historical data...
Loading historical data...
Loading historical data...
Loading historical data...
Loading historical data...

DELTA 1 DEB Visibility forecast

Observer location: undefined°, undefined°

Span
Click to sort rows by Start time (UTC) header in descending order
Start Az.
Max El. time (UTC)
Max El. Az.
Max El.
End time (UTC)
End Az.
12 mins2025-07-01 03:51:37.122Z25.076° NE2025-07-01 03:57:37.122Z94.919° ESE38.708°2025-07-01 04:03:37.122Z176.101° S
9 mins2025-07-01 05:37:37.122Z346.047° N2025-07-01 05:41:37.122Z302.083° NW24.741°2025-07-01 05:46:37.122Z246.757° WSW
9 mins2025-07-01 14:01:37.122Z103.336° ESE2025-07-01 14:05:37.122Z58.01° ENE25.242°2025-07-01 14:10:37.122Z9.584° NNE
12 mins2025-07-01 15:43:37.122Z181.785° SSW2025-07-01 15:49:37.122Z268.643° W40.837°2025-07-01 15:55:37.122Z336.038° NNW
|